TimeCDT,TemperatureF,Dew PointF,Humidity,Sea Level PressureIn,VisibilityMPH,Wind Direction,Wind SpeedMPH,Gust SpeedMPH,PrecipitationIn,Events,Conditions,WindDirDegrees,DateUTC
12:15 AM,60.8,51.3,71,29.63,10.0,SW,9.2,-,N/A,,Mostly Cloudy,220,2013-05-21 05:15:00
12:35 AM,61.5,52.5,72,29.62,10.0,WSW,9.2,-,N/A,,Overcast,240,2013-05-21 05:35:00
12:55 AM,61.7,54.0,76,29.63,10.0,WSW,10.4,-,N/A,,Overcast,240,2013-05-21 05:55:00
1:15 AM,61.7,55.6,80,29.63,10.0,WSW,11.5,16.1,N/A,,Overcast,250,2013-05-21 06:15:00
1:35 AM,61.0,55.9,83,29.64,10.0,West,12.7,17.3,N/A,,Overcast,260,2013-05-21 06:35:00
1:55 AM,59.9,55.8,86,29.64,10.0,West,9.2,-,N/A,,Scattered Clouds,260,2013-05-21 06:55:00
2:15 AM,59.9,55.6,86,29.64,10.0,West,6.9,-,N/A,,Scattered Clouds,260,2013-05-21 07:15:00
2:35 AM,59.9,55.9,87,29.63,10.0,West,11.5,-,N/A,,Overcast,260,2013-05-21 07:35:00
2:55 AM,59.4,54.7,84,29.64,10.0,West,11.5,-,N/A,,Overcast,270,2013-05-21 07:55:00
3:15 AM,58.8,53.8,83,29.64,10.0,West,10.4,17.3,N/A,,Scattered Clouds,270,2013-05-21 08:15:00
3:35 AM,58.1,54.1,87,29.64,10.0,West,12.7,17.3,N/A,,Clear,270,2013-05-21 08:35:00
3:55 AM,57.7,53.6,86,29.64,10.0,West,10.4,17.3,N/A,,Clear,270,2013-05-21 08:55:00
4:15 AM,57.4,52.9,85,29.64,10.0,West,9.2,-,N/A,,Clear,260,2013-05-21 09:15:00
4:35 AM,57.0,52.3,84,29.65,10.0,WSW,8.1,16.1,N/A,,Clear,250,2013-05-21 09:35:00
4:55 AM,56.3,52.0,85,29.65,10.0,WSW,6.9,-,N/A,,Clear,250,2013-05-21 09:55:00
5:15 AM,55.9,51.8,86,29.67,10.0,WSW,6.9,-,N/A,,Clear,240,2013-05-21 10:15:00
5:35 AM,55.9,51.6,85,29.67,10.0,WSW,8.1,-,N/A,,Clear,240,2013-05-21 10:35:00
5:55 AM,55.4,50.9,85,29.68,10.0,WSW,5.8,-,N/A,,Clear,250,2013-05-21 10:55:00
6:15 AM,54.9,50.4,85,29.68,10.0,WSW,5.8,-,N/A,,Clear,250,2013-05-21 11:15:00
6:35 AM,54.7,50.2,85,29.69,10.0,SW,3.5,-,N/A,,Clear,220,2013-05-21 11:35:00
6:55 AM,55.2,50.9,85,29.69,10.0,WSW,5.8,-,N/A,,Clear,240,2013-05-21 11:55:00
7:15 AM,56.5,51.3,83,29.70,10.0,SW,9.2,-,N/A,,Clear,230,2013-05-21 12:15:00
7:35 AM,57.2,50.9,79,29.71,10.0,WSW,9.2,-,N/A,,Mostly Cloudy,240,2013-05-21 12:35:00
7:55 AM,57.6,50.5,77,29.72,10.0,WSW,9.2,-,N/A,,Overcast,240,2013-05-21 12:55:00
8:15 AM,57.6,50.7,78,29.71,10.0,SW,6.9,-,N/A,,Overcast,230,2013-05-21 13:15:00
8:35 AM,59.2,49.3,70,29.71,10.0,West,15.0,-,N/A,,Overcast,260,2013-05-21 13:35:00
8:55 AM,59.7,48.0,65,29.70,10.0,West,15.0,20.7,N/A,,Overcast,260,2013-05-21 13:55:00
9:15 AM,60.1,48.0,64,29.70,10.0,West,16.1,23.0,N/A,,Mostly Cloudy,260,2013-05-21 14:15:00
9:35 AM,61.2,48.0,62,29.70,10.0,West,17.3,-,N/A,,Scattered Clouds,270,2013-05-21 14:35:00
9:55 AM,61.3,47.7,61,29.70,10.0,West,15.0,21.9,N/A,,Scattered Clouds,260,2013-05-21 14:55:00
10:15 AM,61.7,47.1,59,29.70,10.0,West,13.8,21.9,N/A,,Mostly Cloudy,270,2013-05-21 15:15:00
10:35 AM,62.2,48.0,60,29.70,10.0,West,17.3,23.0,N/A,,Mostly Cloudy,260,2013-05-21 15:35:00
10:55 AM,62.6,47.8,58,29.69,10.0,West,15.0,-,N/A,,Mostly Cloudy,260,2013-05-21 15:55:00
11:15 AM,63.7,46.9,54,29.71,10.0,West,16.1,23.0,N/A,,Mostly Cloudy,260,2013-05-21 16:15:00
11:35 AM,63.1,46.2,54,29.70,10.0,West,12.7,21.9,N/A,,Mostly Cloudy,260,2013-05-21 16:35:00
11:55 AM,65.3,46.2,50,29.70,10.0,SW,13.8,25.3,N/A,,Mostly Cloudy,230,2013-05-21 16:55:00
12:15 PM,63.5,45.0,51,29.71,10.0,WSW,15.0,-,N/A,,Mostly Cloudy,240,2013-05-21 17:15:00
12:35 PM,63.3,45.7,53,29.71,10.0,WSW,16.1,23.0,N/A,,Overcast,240,2013-05-21 17:35:00
12:55 PM,61.7,44.6,53,29.72,10.0,WSW,15.0,19.6,N/A,,Overcast,250,2013-05-21 17:55:00
1:15 PM,61.9,44.8,53,29.72,10.0,WSW,15.0,21.9,N/A,,Overcast,250,2013-05-21 18:15:00
1:35 PM,62.1,45.3,54,29.72,10.0,WSW,18.4,23.0,N/A,,Overcast,240,2013-05-21 18:35:00
1:55 PM,62.1,45.9,55,29.72,10.0,WSW,17.3,21.9,N/A,,Overcast,240,2013-05-21 18:55:00
2:15 PM,62.6,44.8,52,29.72,10.0,WSW,15.0,26.5,N/A,,Overcast,240,2013-05-21 19:15:00
2:35 PM,62.4,45.1,53,29.72,10.0,WSW,17.3,24.2,N/A,,Overcast,250,2013-05-21 19:35:00
2:55 PM,63.1,45.5,53,29.72,10.0,West,16.1,23.0,N/A,,Overcast,260,2013-05-21 19:55:00
3:15 PM,63.1,45.1,52,29.72,10.0,WSW,17.3,23.0,N/A,,Overcast,250,2013-05-21 20:15:00
3:35 PM,62.6,45.1,53,29.71,10.0,WSW,13.8,21.9,N/A,,Overcast,240,2013-05-21 20:35:00
3:55 PM,62.4,45.1,53,29.72,10.0,WSW,18.4,24.2,N/A,,Overcast,240,2013-05-21 20:55:00
4:15 PM,62.8,45.3,53,29.72,10.0,WSW,16.1,24.2,N/A,,Overcast,250,2013-05-21 21:15:00
4:35 PM,63.7,45.7,52,29.70,10.0,WSW,17.3,-,N/A,,Overcast,240,2013-05-21 21:35:00
4:55 PM,63.9,45.9,52,29.70,10.0,WSW,15.0,21.9,N/A,,Overcast,250,2013-05-21 21:55:00
5:15 PM,63.0,46.4,55,29.70,10.0,WSW,13.8,18.4,N/A,,Overcast,240,2013-05-21 22:15:00
5:35 PM,63.3,46.6,54,29.71,10.0,WSW,16.1,19.6,N/A,,Overcast,240,2013-05-21 22:35:00
5:55 PM,63.1,46.9,55,29.70,10.0,WSW,11.5,21.9,N/A,,Overcast,240,2013-05-21 22:55:00
6:15 PM,62.8,47.3,57,29.70,10.0,West,15.0,20.7,N/A,,Overcast,260,2013-05-21 23:15:00
6:35 PM,62.4,47.3,58,29.69,10.0,West,12.7,-,N/A,,Overcast,260,2013-05-21 23:35:00
6:55 PM,62.1,47.5,59,29.70,10.0,West,16.1,23.0,N/A,,Overcast,270,2013-05-21 23:55:00
7:15 PM,61.7,48.4,62,29.70,10.0,West,16.1,-,N/A,,Overcast,260,2013-05-22 00:15:00
7:35 PM,61.3,49.1,64,29.69,10.0,West,12.7,18.4,N/A,,Overcast,270,2013-05-22 00:35:00
7:55 PM,61.0,50.2,68,29.69,10.0,NW,10.4,-,N/A,,Overcast,310,2013-05-22 00:55:00
8:15 PM,61.0,50.0,67,29.71,10.0,West,11.5,17.3,N/A,,Overcast,280,2013-05-22 01:15:00
8:35 PM,60.8,50.0,68,29.72,10.0,WNW,9.2,-,N/A,,Overcast,290,2013-05-22 01:35:00
8:55 PM,60.3,50.0,69,29.72,10.0,WNW,11.5,-,N/A,,Overcast,290,2013-05-22 01:55:00
9:15 PM,59.9,49.5,68,29.72,10.0,WNW,16.1,21.9,N/A,,Overcast,300,2013-05-22 02:15:00
9:35 PM,59.0,50.2,73,29.72,10.0,WNW,12.7,-,N/A,,Overcast,300,2013-05-22 02:35:00
9:55 PM,58.5,50.9,76,29.73,10.0,WNW,11.5,-,N/A,,Overcast,300,2013-05-22 02:55:00
10:15 PM,57.7,50.5,77,29.72,10.0,WNW,12.7,20.7,N/A,,Overcast,300,2013-05-22 03:15:00
10:35 PM,56.5,50.7,81,29.73,10.0,WNW,10.4,-,N/A,,Overcast,290,2013-05-22 03:35:00
10:55 PM,55.8,50.4,82,29.73,10.0,WNW,8.1,-,N/A,,Overcast,290,2013-05-22 03:55:00
11:15 PM,56.3,50.2,80,29.73,10.0,WNW,11.5,-,N/A,,Overcast,290,2013-05-22 04:15:00
11:35 PM,55.9,49.6,79,29.73,10.0,WNW,11.5,-,N/A,,Overcast,290,2013-05-22 04:35:00
11:55 PM,55.0,50.0,83,29.74,10.0,WNW,5.8,-,N/A,,Mostly Cloudy,300,2013-05-22 04:55:00